Flag for Norway Weather past 2 weeks in Longyearbyen, Svalbard, Norway

Now
30 °F

Scattered clouds.


Feels Like: 16 °F
Forecast: 31 / 34 °F
Wind: 28 mph from West

Location: Svalbard Lufthavn

Current Time: Sep 17, 2014 at 6:39:08 PM

Latest Report: Sep 17, 2014 at 5:50 PM


Visibility: N/A

Pressure: 29.56 "Hg

Humidity: 75%

Dew point: 23 °F

Location of LongyearbyenLocation

Historic Weather in Longyearbyen — Graph

°F

Longyearbyen temperature yesterday

Maximum temperature yesterday: 50 °F (at 12:50 PM)
Minimum temperature yesterday: 36 °F (at 12:50 AM)
Average temperature yesterday: 42 °F

Past Weeks' High & Low Weather Summary

 TemperatureHumidityPressure
High50 °F (Sep 16, 12:50 PM)93% (Sep 5, 9:50 AM)30.07 "Hg (Sep 5, 9:50 AM)
Low30 °F (Sep 7, 11:50 PM)56% (Sep 10, 12:50 PM)29.03 "Hg (Sep 13, 4:50 PM)
Average37 °F74%29.67 "Hg
* Reported Sep 2 4:50 PM — Sep 17 4:50 PM, Longyearbyen, Weather by CustomWeather, © 2014

Note: Actual official high and low records may vary slightly from our data, if they occured in-between our weather recording intervals... More about our weather records

Advertising

Longyearbyen weather history for previous 24 hours

 ConditionsComfort  
Time TempWeatherWind HumidityBarometerVisibility
4:50 PM
Sep 17
30 °FScattered showers. Scattered clouds.30 mph69%29.56 "HgN/A
3:50 PM32 °FScattered showers. Scattered clouds.28 mph69%29.56 "HgN/A
2:50 PM32 °FSnow flurries. Scattered clouds.31 mph69%29.56 "HgN/A
1:50 PM30 °FScattered showers. Scattered clouds.22 mph69%29.53 "HgN/A
12:50 PM30 °FScattered showers. Partly sunny.23 mph75%29.56 "HgN/A
11:50 AM30 °FScattered showers. Broken clouds.28 mph75%29.53 "HgN/A
10:50 AM32 °FSnow flurries. Broken clouds.29 mph75%29.53 "HgN/A
10:20 AM32 °FScattered showers. Partly sunny.23 mph75%29.53 "HgN/A
9:50 AM32 °FBroken clouds.29 mph75%29.53 "HgN/A
9:20 AM32 °FSnow flurries. Broken clouds.24 mph87%29.53 "HgN/A
8:50 AM32 °FSprinkles. Broken clouds.26 mph80%29.56 "HgN/A
7:50 AM34 °FScattered showers. Partly sunny.26 mph75%29.53 "HgN/A
6:50 AM34 °FLight rain. Broken clouds.25 mph81%29.53 "HgN/A
5:50 AM36 °FPartly cloudy.22 mph87%29.53 "HgN/A
4:50 AM36 °FSprinkles. Mostly cloudy.26 mph87%29.56 "HgN/A
3:50 AM39 °FSprinkles. Passing clouds.20 mph87%29.56 "HgN/A
1:50 AM43 °FPassing clouds.18 mph66%29.59 "HgN/A
12:50 AM43 °FLight rain. Passing clouds.18 mph76%29.62 "HgN/A
11:50 PM
Sep 16
45 °FPassing clouds.22 mph71%29.65 "HgN/A
10:50 PM45 °FPassing clouds.7 mph71%29.65 "HgN/A
9:50 PM45 °FPassing clouds.13 mph66%29.68 "HgN/A
7:50 PM45 °FScattered clouds.12 mph66%29.71 "HgN/A
6:50 PM46 °FScattered showers. Scattered clouds.16 mph71%29.71 "HgN/A
Weather by CustomWeather, © 2014

See weather overviewHow to use our weather pages